Погода в Акчаабате

Турция     41°01′19″N   39°34′20″E
темп.,
°C
ветер,
м/с
пор.,
м/с
влажн.,
%
обл.,
%
осадки,
мм/ч
давл.,
гПа
погр.,
м
27 ноября, сб
сб2700:00+10ю34664 0.0 1018117
03:00+11ю4561100 0.0 101696
06:00+11ююз5758100 0.0 1016116
09:00+13ююз6857100 0.0 1017128
12:00+17юз2453100 0.1 1016182
15:00+15ю336098 0.1 101744
18:00+14ююз5662100 0.0 1016110
21:00+14ююз5663100 0.0 101692
28 ноября, вс
вс2800:00+13ююз5665100 0.0 101693
03:00+13ююз5665100 0.0 101590
06:00+13ююз4467100 0.1 101578
09:00+12ю4578100 1.6 1015100
12:00+16ю3563100 0.0 1013260
15:00+16ю2465100 0.0 1012154
18:00+13ююз4679100 0.9 1015134
21:00+13ю577434 1.3 1015123
29 ноября, пн
пн2900:00+13ююз577030 0.0 1015107
03:00+13ююз5668100 0.0 101587
06:00+14ююз57653 0.0 1014103
09:00+15ююз68595 0.0 1015126
12:00+20ю35510 0.0 1014165
15:00+20ю465024 0.0 1012159
18:00+17ююз785184 0.0 101284
21:00+18ююз784898 0.0 100988
30 ноября, вт
вт3000:00+18ююз7847100 0.0 100883
03:00+17зюз5954100 0.0 1009118
06:00+13зсз1383100 0.0 1012129
09:00+12в3491100 0.1 1014344
12:00+12в458783 0.1 1011468
15:00+16в58690 0.1 1003384
18:00+15ю44560 0.0 100060
21:00+15юз46570 0.0 100174
1 декабря, ср
ср100:00+10зсз469176 0.1 1007392
03:00+10зюз598687 8.3 1010891
06:00+9зсз348692 3.4 1012476
09:00+8с3392100 5.4 1013440
12:00+7св4496100 8.9 1010648
15:00+6ссз5794100 19.0 1012821
18:00+4зюз2292100 9.6 1016455
21:00+4юз2390100 13.6 1017320